Location: Dompnac
(44.5644°N, 4.1026°E)
Time: 02:51:18
(UTC+00:00)

USA 234 - Pass Details

Date: 21 January 2021
Orbit: 1100 x 1107 km, 123.0° (Epoch: 01 March)

Event Time Altitude Azimuth Distance (km) Brightness Sun altitude
Exits shadow 21:30:27 15° 301° (WNW) 2,616 5.6 -51.1°
Drops below altitude 10° 21:31:24 10° 304° (WNW) 2,964 6.0 -51.2°
Sets 21:33:57 0° 308° (NW) 3,926 6.8 -51.6°
